CDT,Max TemperatureF,Mean TemperatureF,Min TemperatureF,Max Dew PointF,MeanDew PointF,Min DewpointF,Max Humidity, Mean Humidity, Min Humidity, Max Sea Level PressureIn, Mean Sea Level PressureIn, Min Sea Level PressureIn, Max VisibilityMiles, Mean VisibilityMiles, Min VisibilityMiles, Max Wind SpeedMPH, Mean Wind SpeedMPH, Max Gust SpeedMPH,PrecipitationIn, CloudCover, Events, WindDirDegrees
2013-7-1,79,67,55,54,50,44,86,57,30,30.08,30.04,30.00,10,10,10,21,11,26,0.00,0,,16
2013-7-2,79,66,53,54,52,48,88,61,39,30.10,30.06,30.03,10,10,10,17,8,22,0.00,1,,21
2013-7-3,78,65,53,56,52,44,95,65,31,30.09,30.06,30.03,10,10,7,8,1,,0.00,1,,324
2013-7-4,84,72,59,63,58,54,91,63,37,30.09,30.05,30.01,10,10,7,10,4,,0.00,1,,165
2013-7-5,84,74,63,65,60,55,88,63,37,30.09,30.05,30.00,10,10,7,10,4,,0.00,0,,144
2013-7-6,86,74,62,67,63,60,93,68,43,30.06,30.02,29.97,10,10,7,12,4,17,0.00,1,,155
2013-7-7,88,77,66,67,65,62,91,70,45,30.01,29.99,29.97,10,10,7,16,6,20,0.00,1,,175
2013-7-8,86,78,71,73,71,66,94,75,61,30.04,30.01,29.99,10,10,2,17,11,23,0.33,2,Rain-Thunderstorm,211
2013-7-9,87,80,74,75,73,70,92,77,62,30.01,29.96,29.89,10,10,7,15,4,21,0.00,3,Thunderstorm,199
2013-7-10,84,73,62,73,65,58,90,67,45,30.05,29.95,29.87,10,10,10,16,7,22,0.00,2,,324
2013-7-11,82,69,57,61,56,51,96,65,35,30.12,30.09,30.04,10,10,5,13,3,17,0.00,0,,45
2013-7-12,83,68,54,59,55,51,96,61,33,30.16,30.12,30.08,10,10,4,7,2,,0.00,0,,116
2013-7-13,84,70,56,61,58,54,92,64,42,30.16,30.11,30.08,10,10,10,9,3,,0.00,1,,102
2013-7-14,87,76,66,67,63,60,86,64,44,30.19,30.15,30.11,10,10,10,12,5,17,0.00,0,,117
2013-7-15,91,79,68,72,70,66,93,71,51,30.26,30.22,30.19,10,10,10,8,2,,0.00,2,,115
2013-7-16,90,80,71,73,71,69,96,75,53,30.32,30.28,30.25,10,10,2,7,3,,0.00,1,,162
2013-7-17,93,80,69,74,71,67,96,72,43,30.34,30.28,30.20,10,10,4,8,1,,0.00,0,,225
2013-7-18,93,82,72,73,71,68,95,70,44,30.22,30.12,29.99,10,10,7,12,4,17,0.00,0,,205
2013-7-19,94,83,73,71,69,64,85,63,38,29.99,29.91,29.82,10,10,10,15,8,22,0.00,0,,221
2013-7-20,87,78,68,70,63,56,89,62,35,29.94,29.91,29.86,10,10,10,13,4,17,0.00,1,,12
2013-7-21,81,72,63,72,67,61,96,84,64,29.95,29.91,29.86,10,9,0,10,2,,0.04,2,Fog-Rain,137
2013-7-22,88,75,63,71,67,62,97,79,55,29.91,29.83,29.77,10,8,0,30,3,41,0.11,4,Fog-Rain-Thunderstorm,199
2013-7-23,78,68,59,66,61,57,96,77,53,29.97,29.88,29.77,10,10,3,15,5,20,0.00,1,,320
2013-7-24,76,65,55,57,54,50,97,68,41,30.09,30.04,29.96,10,10,7,12,5,16,0.00,1,,33
2013-7-25,81,66,52,60,56,51,96,69,44,30.12,30.08,30.05,10,10,10,10,2,,0.00,1,,175
2013-7-26,78,68,59,68,61,55,96,83,60,30.05,29.99,29.91,10,9,2,13,5,18,0.28,6,Rain-Thunderstorm,206
2013-7-27,67,60,53,55,50,45,95,71,45,30.00,29.98,29.95,10,10,10,15,8,22,0.03,4,,292
2013-7-28,71,61,51,55,50,46,95,70,49,30.07,30.00,29.95,10,10,10,16,6,20,0.01,3,,271
2013-7-29,76,62,47,57,53,47,97,69,41,30.17,30.14,30.08,10,9,1,7,1,,0.01,1,,147
2013-7-30,68,65,62,67,62,56,97,89,68,30.15,30.09,30.03,10,6,1,9,4,,0.06,8,Rain,116
2013-7-31,77,70,62,67,65,61,97,86,64,30.07,30.04,30.00,10,7,0,10,4,,0.17,6,Fog-Rain,313